Powrót do katalogu

COSMOS 203

AktywnyMilitariaLEO
NORAD 3129·PAYLOAD·🇷🇺 Russia

Wystrzelony Feb 20, 1968 z Plesetsk Cosmodrome

Loading…

Następne Przeloty (najbliższe 24 godziny)

TLE

ŚwieżeSource: Space-Track

Epoka: Sep 14, 2026, 03:07 UTC

1 03129U 68011A   26257.13020976 -.00000172  00000-0 -39057-3 0  9990
2 03129  74.0536 320.0841 0011666 141.3853 242.5644 13.18306216817706

Śledź COSMOS 203 w czasie rzeczywistym z AllMySat

Download on the App Store